Pagina principale
METAR-TAF:

METAR-TAF

Aeroporti :

Francis S. Gabreski Airport

Westhampton Beach, New York, Stati Uniti

latitudine: 40-51-03N, longitudine: 072-37-14W, altezza: 20 m

Osservazione

Il bollettino è stato emesso 51 minuti fa, alle 17:53 UTC
Vento 12 kt da ovest/sud-ovest
Temperature 6°C
Umidità 52%
Pressione 1016 hPa
Visibilità: 16.1 km
Cielo coperto ad un'altezza di 10000 ft

METAR: KFOK 211753Z 24012KT 10SM OVC100 06/M03 A2999 RMK AO2 SLP154 T00611033 10061 21061 58026 $

Ora: 13:44 (18:44 UTC)


TAF: mancante

Osservazioni e previsioni meteorologiche di più di 4000 aeroporti (messaggi METAR e TAF).

Le stazioni disponibili sono rappresentate dai dischi gialli e rossi sulla carta.

Puntare il mouse per vedere il nome della stazione.

Clicca sopra per visualizzare le osservazioni e previsioni meteorologiche.

Per cambiare la mappa : fare clic sui pulsanti verdi con una croce nera per ingrandire, il pulsante verde con un trattino per diminuire, o sulla freccia verde per le mappe adiacenti.


METAR-TAF: